[[{"header":{"parameterUnit":"m.s-1","parameterCategory":1,"la1":30.2991,"la2":30.254,"lo1":-89.0895,"lo2":-89.0444,"dy":0.0017,"dx":0.0017,"nx":28,"ny":28,"refTime":"2023-08-12T09:00:00:Z","depth":0,"parameterNumber":2,"parameterNumberName":"U-component_of_WINDS"},"data":[0,0,0,0,0,0,0,0,0,0,0,0,0,0,0,0,0,0,0,0,0,0,0,0,0,0,0,0,0,0,0,0,0,0,0,0,0,0,0,0,0,0,0,0,0,0,0,0,0,0,0,0,0,0,0,0,0,0,2.8761,2.8761,0,2.8786,2.8786,2.8786,2.8752,2.875,2.8749,2.8748,2.8775,2.8777,2.8779,0,0,0,0,0,0,0,0,0,0,0,0,0,2.8686,2.8688,2.8761,2.8761,2.8761,2.8786,2.8786,2.8786,2.8752,2.875,2.8749,2.8747,2.8775,2.8777,2.8779,0,0,0,0,0,0,0,0,0,0,0,0,0,2.8716,2.8688,2.8761,2.8747,2.8746,2.8785,2.8786,2.8786,2.8752,2.875,2.8748,2.8747,2.8774,2.8777,2.8779,2.8834,0,0,2.8788,2.8789,0,0,0,0,0,0,0,0,2.8714,2.8718,2.8749,2.8748,2.8747,2.8764,2.877,2.8802,2.8753,2.875,2.8748,2.8746,2.8773,2.8776,2.8784,2.8835,2.8836,2.8788,2.879,2.8791,2.8792,0,0,0,0,0,0,0,2.8712,2.8717,2.8771,2.8749,2.8748,2.8741,2.8743,2.8776,2.8772,2.875,2.8747,2.8751,2.8772,2.8782,2.8785,2.8837,2.8788,2.8791,2.8792,2.8793,2.8935,2.8937,0,0,0,0,0,0,2.8711,2.8716,2.877,2.8771,2.8726,2.8743,2.8746,2.876,2.8771,2.8771,2.8752,2.8749,2.8778,2.8782,2.8786,2.8851,2.8791,2.8794,2.8795,2.8933,2.8936,2.8938,0,0,0,0,0,0,2.871,2.8716,2.8769,2.8743,2.8749,2.8747,2.8763,2.8762,2.8771,2.8773,2.8772,2.8763,2.8777,2.8782,2.8822,2.8852,2.8795,2.8798,2.8931,2.8934,2.8937,2.8982,0,0,0,0,0,0,2.8708,2.8716,2.8736,2.8744,2.875,2.8804,2.8765,2.8763,2.8776,2.8772,2.8783,2.8783,2.8776,2.8818,2.8825,2.8855,2.88,2.8928,2.8932,2.8936,2.8978,2.8987,2.8994,0,0,0,0,0,2.8705,2.8748,2.8737,2.8744,2.8775,2.8806,2.881,2.8801,2.8778,2.8799,2.88,2.8782,2.8847,2.8823,2.883,2.8861,2.8926,2.8931,2.8936,2.8975,2.8985,2.8994,0,0,0,0,0,0,2.8744,2.8749,2.8737,2.8783,2.8794,2.88,2.8826,2.8812,2.883,2.8825,2.8814,2.8816,2.886,2.8865,2.8837,2.8915,2.8883,2.889,2.8911,2.892,2.8928,2.8926,2.8802,0,0,0,0,0,2.8758,2.8782,2.8785,2.8825,2.8832,2.8828,2.8841,2.8833,2.8844,2.8849,2.8853,2.8866,2.889,2.8905,2.8927,2.8979,2.8982,2.9004,2.9012,2.9018,2.9024,2.9053,2.9064,2.8953,2.8953,2.8953,0,0,2.8787,2.8792,2.8808,2.8833,2.8841,2.8867,2.8832,2.8861,2.888,2.8854,2.8892,2.8896,2.891,2.8957,2.8978,2.8962,2.9055,2.9024,2.9029,2.9031,2.9059,2.907,2.9079,2.8957,2.8956,2.8955,0,0,2.8853,2.8859,2.8894,2.8903,2.8915,2.8913,2.8921,2.893,2.8931,2.897,2.8951,2.8975,2.9015,2.9026,2.9036,2.9109,2.9093,2.9116,2.9157,2.9186,2.9195,2.9202,2.9229,2.9239,2.9122,2.9122,2.9122,0,2.8887,2.8925,2.8914,2.8944,2.8957,2.8934,2.897,2.8979,2.8998,2.9008,2.899,2.9041,2.9048,2.9098,2.9116,2.9125,2.9136,2.9115,2.9194,2.9202,2.9209,2.9234,2.9244,2.9125,2.9124,2.9124,2.9124,0,2.8968,2.8994,2.9021,2.904,2.9056,2.9089,2.9084,2.9101,2.9092,2.9092,2.9133,2.9141,2.9164,2.9175,2.9167,2.9225,2.9215,2.9196,2.9163,2.9222,2.9246,2.9256,2.9129,2.9128,2.9127,2.9126,0,0,2.9058,2.9071,2.9081,2.909,2.9103,2.9124,2.9157,2.918,2.9195,2.921,2.9238,2.9274,2.9256,2.9269,2.9261,2.9287,2.9345,2.9264,2.9265,2.928,2.9411,2.9426,2.9437,2.9335,2.9337,2.9338,2.941,0,2.9125,2.9181,2.9173,2.9227,2.9253,2.9232,2.9261,2.9273,2.9274,2.9296,2.9298,2.9324,2.9298,2.9306,2.933,2.9333,2.9371,2.9327,2.9362,2.9363,2.936,2.9449,2.9465,2.9533,2.9419,2.9421,2.9422,0,2.921,2.9228,2.9285,2.9295,2.9306,2.9332,2.9353,2.9374,2.9388,2.9387,2.9401,2.939,2.9424,2.9392,2.944,2.941,2.9424,2.9428,2.943,2.9433,2.9397,2.9456,2.9554,2.9564,2.9436,2.9435,2.9434,0,2.9271,2.931,2.9349,2.9357,2.937,2.9389,2.9396,2.9407,2.9422,2.9441,2.945,2.9473,2.9486,2.9504,2.95,2.9476,2.9549,2.9516,2.9551,2.9551,2.9567,2.9566,2.9669,2.9575,2.9575,2.9575,2.9575,0,2.9347,2.9383,2.9377,2.9402,2.9442,2.9433,2.9473,2.9477,2.9488,2.9514,2.9497,2.9522,2.9514,2.9539,2.9536,2.9577,2.9583,2.9584,2.9583,2.9586,2.9586,2.9595,2.959,2.9578,2.9577,2.9576,2.9576,0,2.9423,2.942,2.9462,2.9471,2.9474,2.9503,2.9511,2.9535,2.9535,2.9568,2.9575,2.9576,2.9605,2.9602,2.9634,2.9632,2.9683,2.9676,2.9678,2.9677,2.9712,2.9709,2.9825,2.984,2.9736,2.9737,2.9738,0,2.9472,2.9499,2.9511,2.9527,2.9535,2.956,2.9575,2.9568,2.9584,2.9603,2.9625,2.9651,2.9672,2.9719,2.9723,2.9748,2.9742,2.9781,2.9745,2.9748,2.9744,2.9742,2.9745,2.9788,2.9789,2.979,2.9791,0,2.9559,2.9557,2.9578,2.9601,2.9619,2.9636,2.9652,2.9666,2.966,2.968,2.9709,2.9725,2.9758,2.9785,2.9809,2.9817,2.9804,2.9802,2.9811,2.9815,2.9816,2.9817,2.9698,2.9799,2.9798,2.9798,2.9797,2.9797,2.9623,2.9647,2.966,2.9685,2.9696,2.9712,2.9735,2.9738,2.9762,2.9787,2.9782,2.9815,2.9829,2.9859,2.987,2.9896,2.9882,2.9895,2.9899,2.9903,2.9907,2.9811,2.99,2.99,2.99,2.9899,2.9899,0,2.9711,2.9718,2.9742,2.9764,2.9785,2.977,2.9787,2.9805,2.9834,2.9848,2.9869,2.9903,2.993,2.9937,2.9963,2.9983,2.9977,2.999,2.9989,2.9991,2.9918,2.9907,2.9994,2.9994,2.9994,2.9994,2.9994,2.9994,2.9759,2.9799,2.9798,2.9844,2.9851,2.9883,2.9894,2.9908,2.992,2.9958,2.998,2.9984,2.9996,3.0023,3.0047,3.0049,3.0059,3.0075,3.0074,3.0005,2.9996,2.9987,2.9977,3.0077,3.0077,3.0145,3.0145,3.0146]},{"header":{"parameterUnit":"m.s-1","parameterCategory":1,"la1":30.2991,"la2":30.254,"lo1":-89.0895,"lo2":-89.0444,"dy":0.0017,"dx":0.0017,"nx":28,"ny":28,"refTime":"2023-08-12T09:00:00:Z","depth":0,"parameterNumber":3,"parameterNumberName":"V-component_of_WINDS"},"data":[0,0,0,0,0,0,0,0,0,0,0,0,0,0,0,0,0,0,0,0,0,0,0,0,0,0,0,0,0,0,0,0,0,0,0,0,0,0,0,0,0,0,0,0,0,0,0,0,0,0,0,0,0,0,0,0,0,0,0.1784,0.1783,0,0.1751,0.1751,0.1751,0.1735,0.1735,0.1735,0.1735,0.1701,0.1701,0.17,0,0,0,0,0,0,0,0,0,0,0,0,0,0.183,0.1829,0.1784,0.1783,0.1783,0.1751,0.1751,0.175,0.1735,0.1735,0.1735,0.1735,0.1702,0.1701,0.17,0,0,0,0,0,0,0,0,0,0,0,0,0,0.1805,0.1829,0.1784,0.1771,0.177,0.1751,0.1751,0.175,0.1735,0.1735,0.1735,0.1735,0.1702,0.1701,0.1699,0.1691,0,0,0.1695,0.1695,0,0,0,0,0,0,0,0,0.1806,0.1803,0.1774,0.1772,0.1771,0.1747,0.1755,0.173,0.1735,0.1748,0.1735,0.1735,0.1717,0.1714,0.1708,0.1689,0.1688,0.1695,0.1694,0.1694,0.1693,0,0,0,0,0,0,0,0.1808,0.1805,0.1771,0.1773,0.1771,0.1767,0.1763,0.175,0.1733,0.1747,0.1746,0.1742,0.1716,0.1709,0.1707,0.1687,0.1695,0.1694,0.1693,0.1693,0.1657,0.1657,0,0,0,0,0,0,0.1812,0.1806,0.1772,0.177,0.1789,0.1766,0.1762,0.1755,0.1733,0.1729,0.1742,0.1742,0.1712,0.1709,0.1706,0.1693,0.1694,0.1692,0.1692,0.1657,0.1657,0.1657,0,0,0,0,0,0,0.1813,0.1809,0.1773,0.1788,0.1783,0.1765,0.1757,0.1754,0.1748,0.1729,0.1726,0.1739,0.1711,0.1708,0.1694,0.1691,0.1692,0.1691,0.1657,0.1657,0.1657,0.1667,0,0,0,0,0,0,0.1815,0.181,0.1807,0.1788,0.1782,0.1763,0.1757,0.1753,0.1745,0.1744,0.1725,0.1722,0.1711,0.1696,0.1693,0.1689,0.1689,0.1657,0.1657,0.1657,0.1667,0.1667,0.1667,0,0,0,0,0,0.1816,0.1811,0.1807,0.1803,0.1778,0.1763,0.1759,0.1747,0.1745,0.1742,0.1729,0.1723,0.1692,0.1695,0.1691,0.1687,0.1657,0.1657,0.1657,0.1667,0.1667,0.1667,0,0,0,0,0,0,0.1831,0.1809,0.1803,0.1792,0.1779,0.176,0.1755,0.1748,0.1735,0.1735,0.172,0.1716,0.1703,0.1694,0.1697,0.1676,0.1674,0.1673,0.1683,0.1683,0.1683,0.1686,0.1688,0,0,0,0,0,0.1833,0.1822,0.1803,0.1795,0.1789,0.1773,0.1766,0.1757,0.1743,0.1738,0.1725,0.1711,0.1698,0.169,0.1678,0.1665,0.166,0.1661,0.1661,0.1661,0.166,0.1651,0.1651,0.1656,0.1656,0.1656,0,0,0.1836,0.1823,0.1817,0.1798,0.1787,0.1775,0.1769,0.1758,0.1749,0.1736,0.1722,0.1712,0.1696,0.1682,0.1676,0.1674,0.1658,0.1661,0.1661,0.166,0.1651,0.165,0.165,0.1656,0.1656,0.1656,0,0,0.1837,0.1827,0.1818,0.1807,0.179,0.1779,0.1777,0.1758,0.1751,0.1737,0.1726,0.1715,0.1694,0.1682,0.1674,0.1668,0.1661,0.1664,0.1666,0.1657,0.1657,0.1656,0.1653,0.1652,0.1663,0.1663,0.1663,0,0.1844,0.1827,0.1814,0.1803,0.1794,0.1782,0.1772,0.1762,0.1742,0.1735,0.1734,0.1705,0.1694,0.1676,0.1675,0.1669,0.1665,0.1666,0.1658,0.1657,0.1657,0.1653,0.1652,0.1664,0.1664,0.1664,0.1664,0,0.1835,0.1824,0.1819,0.1799,0.179,0.1779,0.1764,0.1755,0.1747,0.1736,0.1721,0.1706,0.1689,0.1685,0.1677,0.1666,0.1665,0.1661,0.1658,0.1657,0.1653,0.1652,0.1664,0.1664,0.1664,0.1664,0,0,0.1845,0.1818,0.1816,0.1806,0.1786,0.1777,0.1765,0.1748,0.1741,0.1727,0.1716,0.1697,0.1693,0.1683,0.1673,0.1666,0.1661,0.1663,0.1662,0.1662,0.1645,0.1648,0.1647,0.1656,0.1655,0.1655,0.1646,0,0.1843,0.1822,0.1809,0.1793,0.1781,0.1768,0.1758,0.1744,0.1733,0.1721,0.1709,0.1695,0.1691,0.1684,0.1676,0.1663,0.1657,0.1664,0.1644,0.1644,0.1648,0.1645,0.1649,0.1641,0.1645,0.1645,0.1645,0,0.1837,0.1823,0.1806,0.1786,0.178,0.1771,0.1754,0.1743,0.1726,0.1718,0.1706,0.1696,0.1682,0.1681,0.1661,0.1665,0.1656,0.1648,0.1648,0.1645,0.1644,0.1642,0.1639,0.1637,0.1643,0.1643,0.1643,0,0.1845,0.1822,0.1808,0.18,0.1776,0.177,0.176,0.1743,0.1733,0.1718,0.1711,0.1694,0.1685,0.1672,0.1657,0.1658,0.1638,0.1636,0.163,0.163,0.1626,0.1627,0.1621,0.1622,0.1622,0.1622,0.1622,0,0.1843,0.1833,0.1811,0.1802,0.179,0.1774,0.1762,0.1751,0.1735,0.1724,0.1712,0.1701,0.1682,0.1669,0.1657,0.1641,0.1637,0.163,0.1627,0.1631,0.1631,0.1624,0.1624,0.1622,0.1622,0.1622,0.1622,0,0.1849,0.1835,0.1818,0.1797,0.1791,0.1783,0.1763,0.1754,0.1742,0.1727,0.1723,0.1703,0.1686,0.1671,0.1648,0.164,0.1624,0.162,0.163,0.1628,0.1623,0.1623,0.1612,0.1609,0.1613,0.1613,0.1613,0,0.1849,0.1841,0.1818,0.1809,0.1799,0.1785,0.1775,0.1759,0.1748,0.1727,0.172,0.1702,0.1687,0.1661,0.1644,0.1626,0.1622,0.1619,0.1619,0.1623,0.162,0.1621,0.1619,0.1619,0.1619,0.1619,0.1619,0,0.1849,0.1842,0.1828,0.1811,0.1799,0.1784,0.177,0.1763,0.1744,0.1732,0.1715,0.1703,0.168,0.1662,0.1642,0.163,0.1621,0.1619,0.1617,0.1621,0.1626,0.1622,0.1629,0.162,0.162,0.162,0.162,0.162,0.1852,0.1843,0.1825,0.1809,0.1796,0.1782,0.1772,0.1758,0.1743,0.1723,0.1714,0.1696,0.1677,0.165,0.1638,0.1623,0.1621,0.1618,0.1617,0.1616,0.1616,0.1629,0.1619,0.1619,0.1619,0.1619,0.1619,0,0.185,0.1838,0.1824,0.1803,0.179,0.1783,0.1765,0.1755,0.1739,0.1723,0.1708,0.1687,0.1669,0.165,0.1631,0.1622,0.1617,0.1617,0.1618,0.1615,0.162,0.1623,0.1621,0.1621,0.1621,0.1621,0.1621,0.1621,0.1848,0.1833,0.1823,0.18,0.1788,0.177,0.176,0.1747,0.1733,0.1711,0.1695,0.1683,0.1666,0.1645,0.1627,0.1622,0.1615,0.1616,0.161,0.1615,0.1615,0.1615,0.1618,0.1615,0.1615,0.1606,0.1606,0.1606]}]]